Regional Weather Roundup
Issued by NWS Grand Forks, ND

Home | Current Version | Previous Version | Text Only | Print | Product List | Glossary On
Versions: 1 2 3 4 5 6 7 8 9 10 11 12 13 14 15 16 17 18 19 20 21 22 23 24 25 26 27 28 29 30 31 32 33 34 35 36 37 38 39 40 41 42 43 44 45 46 47 48 49 50
598
ASUS43 KFGF 241331
RWRFGF
PRAIRIE TO PINES  WEATHER ROUNDUP
NATIONAL WEATHER SERVICE EASTERN NORTH DAKOTA/GRAND FORKS ND
800 AM CDT TUE MAY 24 2016

 **SATELLITE DATA USED TO AUGMENT SKY COVER AT AUTOMATED STATIONS**
 *****  WEATHER ACROSS EASTERN NORTH DAKOTA  *****

CITY           SKY/WX    TMP DP  RH WIND       PRES   REMARKS
GRAND FORKS    PTSUNNY   60  54  80 CALM      29.79R
GRAND FRKS AFB NOT AVBL
GRAND FRKS NWS   N/A     59 N/A N/A NE1         N/A
DEVILS LAKE    SUNNY     61  48  62 CALM      29.83S
FARGO          CLOUDY    63  49  60 E12       29.80R
WAHPETON ARPT  SUNNY     64  45  48 E15       29.83R
$$

 ***** WEATHER ACROSS CENTRAL AND WESTERN NORTH DAKOTA  *****

CITY           SKY/WX    TMP DP  RH WIND       PRES   REMARKS
BISMARCK       SUNNY     54  44  69 W6        29.86R
MINOT          SUNNY     60  44  55 CALM      29.84R
JAMESTOWN      SUNNY     59  51  75 CALM      29.81R
MINOT AFB      SUNNY     56  43  62 W1        29.83R
GARRISON         N/A     54  44  69 NW6       29.86R
WILLISTON      CLOUDY    50  43  77 SW6       29.86R
DICKINSON      MOSUNNY   48  40  73 W8        29.86R
HETTINGER      SUNNY     47  42  83 CALM      29.89R
$$

 *****  OTHER AIRPORT OBSERVATIONS IN OUR AREA  *****

CITY           SKY/WX    TMP DP  RH WIND       PRES   REMARKS
WALHALLA       FAIR      61  46  59 CALM      29.83R
GRAFTON AIRPOR FAIR      59  55  88 N8        29.83R
VALLEY CITY AR FAIR      59  59 100 CALM      29.82F
CANDO          FAIR      61  46  59 NE5       29.85S
CAVALIER APRT  PTSUNNY   63  48  59 E8        29.82F
GWINNER        FAIR      64  52  63 E6        29.85R
SHEYENNE NWR     N/A     62  52  69 E10       29.95
ROLLA          FAIR      59  45  58 CALM      29.85R
 ***** THE ABOVE OBSERVATIONS ARE NON NWS ARE NOT QUALITY
       CONTROLLED AND MAY MIS-REPORT RAIN FOR SNOW...
$$

  *****  WEATHER ACROSS NORTHERN MINNESOTA  *****

CITY           SKY/WX    TMP DP  RH WIND       PRES   REMARKS
FLAG ISLAND    CLOUDY    61  55  82 CALM      29.80R
WARROAD        CLOUDY    63  54  72 W6        29.83R
ROSEAU         CLOUDY    61  54  77 CALM      29.83R
HALLOCK        CLOUDY    59  55  88 NE5       29.82S
THF RVR FALLS  CLOUDY    59  48  67 N5        29.81F
BAUDETTE       PTSUNNY   59  52  77 S3        29.79S
WASKISH        CLOUDY    63  57  82 SW12      29.84R
CROOKSTON      CLOUDY    57  54  88 N9        29.81R
STEPHEN NDAWN    N/A     61  52  72 S8          N/A
GREENBUSH NDAW   N/A     57  54  88 W7          N/A
$$
  *****  WEATHER ACROSS CENTRAL AND WEST MINNESOTA  *****

CITY           SKY/WX    TMP DP  RH WIND       PRES   REMARKS
FOSSTON          N/A     61  54  77 CALM      29.85R
BEMIDJI        PTSUNNY   59  51  75 W7        29.85F
PARK RAPIDS    PTSUNNY   59  54  83 NW7       29.86R
ELBOW LAKE     PTSUNNY   63  60  91 NE14G21   29.84R
WADENA         SUNNY     63  52  67 N3        29.86S
DETROIT LAKES  MOSUNNY   61  52  72 NE6       29.87R
MOORHEAD       PTSUNNY   64  52  63 E8        29.83R
FERGUS FALLS   SUNNY     66  52  59 NE12G18   29.81R
MORRIS MN      SUNNY     66  57  72 NE9       29.81S
STAPLES        PTSUNNY   64  52  63 E6        29.85R
$$
  *****  WEATHER ELSEWHERE ACROSS MINNESOTA  *****

CITY           SKY/WX    TMP DP  RH WIND       PRES   REMARKS
DULUTH         LGT RAIN  60  58  92 E3        29.86R
INTRNTL FALLS  CLOUDY    58  57  97 SE3       29.81R
ELY            PTSUNNY   55  55 100 CALM      29.85F
CLOQUET        CLOUDY    61  57  88 NE5       29.85R FOG
WHEATON        SUNNY     68  55  64 N13G21    29.84R
BRAINERD       PTSUNNY   61  58  90 NE5       29.84S
HIBBING        CLOUDY    59  54  83 S3        29.85S
ALEXANDRIA     LGT RAIN  62  60  93 E14       29.86R FOG
SAINT CLOUD    NOT AVBL
MINNEAPOLIS    MOSUNNY   68  60  75 SW8       29.84S
$$

  *****  WEATHER ACROSS SOUTH DAKOTA  *****

CITY           SKY/WX    TMP DP  RH WIND       PRES   REMARKS
SIOUX FALLS    CLOUDY    63  60  90 S7        29.85R
BROOKINGS      FOG       61  61 100 S7        29.87R VSB 1
WATERTOWN      SUNNY     64  57  78 NE8       29.85R
HURON          PTSUNNY   59  59 100 VRB3      29.82R FOG
SISSETON         N/A     64  49  57 NE7       29.83R
ABERDEEN       SUNNY     62  50  64 N7        29.84R
MITCHELL       SUNNY     60  59  96 S7        29.84R
PIERRE         SUNNY     55  47  74 NE13      29.83R
MOBRIDGE       SUNNY     55  48  77 NW7       29.84R
RAPID CITY     SUNNY     54  39  57 NW7       29.90R
$$

  *****  SOME WEATHER IN NEARBY STATES *****

CITY           SKY/WX    TMP DP  RH WIND       PRES   REMARKS
GLASGOW MT     CLOUDY    50  42  74 W16       29.83R
GREAT FALLS MT CLOUDY    41  40  96 W5        29.91R
CHEYENNE WY    SUNNY     44  37  76 W6        29.97R
SCOTTSBLUFF NE SUNNY     46  41  82 CALM      29.93R
OMAHA NE       CLOUDY    63  60  90 S3        29.90S
DES MOINES IA  CLOUDY    65  61  87 S5        29.92R
DAVENPORT IA   SUNNY     69  55  60 S10       29.95F
CHICAGO IL     MOSUNNY   67  50  54 SW5       30.01R
EAU CLAIRE WI  CLOUDY    66  63  90 S8        29.85F
LA CROSSE WI   CLOUDY    71  55  56 SE7       29.86S
$$

  *****  SOME NATIONAL WEATHER *****

CITY           SKY/WX    TMP DP  RH WIND       PRES   REMARKS
LA GUARDIA NY  LGT RAIN  62  61  96 NW5       29.91R
RALEIGH NC     MOSUNNY   64  57  78 SW8       30.12R
ATLANTA GA     PTSUNNY   65  53  65 VRB7      30.15R
NEW ORLEANS LA SUNNY     78  67  68 SE6       30.05R
OKLAHOMA CITY  PTSUNNY   71  62  73 SW16      29.87R
ALBUQUERQUE NM SUNNY     57  24  28 NE5       30.00R
SALT LAKE CITY MOCLDY    55  40  56 E12       29.79F
LOS ANGELES CA MOCLDY    58  52  80 VRB3      29.93S
BOISE ID       PTCLDY    47  40  76 SW3       29.84S
SEATTLE WA     MOCLDY    56  49  77 N3        29.95S
$$

*** WEATHER ACROSS MANITOBA...SASKATCHEWAN AND ONTARIO ***
                ***ONTARIO***

CITY           SKY/WX    TMP DP  RH WIND       PRES   REMARKS
GERALDTON      CLOUDY    55  50  82 NE10      29.91R
THUNDER BAY    CLOUDY    59  59 100 E3        29.85S FOG
SIOUX LOOKOUT  CLOUDY    55  54  94 VRB5      29.87R
TORONTO        MOSUNNY   66  41  39 NW3       30.00R
BIG TROUT LK   CLOUDY    34  32  93 NE7       30.06R
PICKLE LAKE    PTSUNNY   43  37  81 E13G20    29.97R
DRYDEN         SUNNY     59  54  82 NE12      29.83S
KENORA         PTSUNNY   64  50  59 SW5       29.81R
$$
                *** MANITOBA***

CITY           SKY/WX    TMP DP  RH WIND       PRES   REMARKS
BRANDON        MOSUNNY   50  43  76 W6        29.82R
DAUPHIN        CLOUDY    54  50  87 NW5       29.83R
ISLAND LAKE    NOT AVBL
PILOT MOUND      N/A     54  46  76 W1          N/A
THE PAS        CLOUDY    43  37  81 E8        29.95R
THOMPSON       FLURRIES  34  30  86 NE7       30.10R
WINNIPEG       PTSUNNY   57  48  72 W6        29.79R
LYNN LAKE      CLOUDY    36  34  93 E9        30.04R
CHURCHILL      CLOUDY    30  23  74 NW7       30.15R WCI  23
GILLAM         CLOUDY    27  21  80 NE6       30.16R WCI  20
$$
                ***SASKATCHEWAN***

CITY           SKY/WX    TMP DP  RH WIND       PRES   REMARKS
ESTEVAN        PTSUNNY   50  45  81 S9        29.82R
KINDERSLEY     LGT RAIN  48  48 100 N9        29.80R
LLOYDMINSTER   CLOUDY    46  45  93 E7        29.87R
PRINCE ALBERT  DRIZZLE   46  45  93 E14       29.87R FOG
REGINA         MOSUNNY   50  46  87 S8        29.76R
YORKTON        SUNNY     52  46  82 SE6       29.79S
N. BATTLEFORD  CLOUDY    50  48  93 N6        29.86R
LA RONGE       PTSUNNY   45  41  87 E7        29.94R
SASKATOON      LGT RAIN  48  48 100 NE18      29.81R
SWIFT CURRENT  CLOUDY    46  46 100 MISG      29.76R
$$
NOTE: THESE ARE AUTOMATED STATIONS WITH LIMITED QUALITY CONTROL
      "FAIR" INDICATES FEW OR NO CLOUDS BELOW 12,000 FEET WITH NO
      SIGNIFICANT WEATHER AND/OR OBSTRUCTIONS TO VISIBILITY.
      SKY/WX - SKY CONDITION AND SIGNIFICANT WEATHER.
      TMP - AIR TEMPERATURE.    DP   - DEWPOINT TEMPERATURE.
      RH  - RELATIVE HUMIDITY.  PRES - PRESSURE.
      HX  - HEAT INDEX.         WCI  - WIND CHILL INDEX.
$




USA.gov is the U.S. government's official web portal to all federal, state and local government web resources and services.